Overview Statistics Trail Chart Weather Telemetry Raw packets
 

This is the latest recevied weather packets stored in our database for station/object WX0ABE-13. If no packets are shown the sender has not sent any weather packets the latest 10 day(s).

<< 101 102 103 104 105 106 107 >>
Time Temp. Humidity Pressure Rain* Wind** Luminosity Snow
1787606709 35.56° C 22% 1017.7 hPa 0 mm - 144 W/m² -
1787606408 35.56° C 23% 1018 hPa 0 mm - 104 W/m² -
1787606103 35° C 25% 1018.2 hPa 0 mm - 327 W/m² -
1787605803 35.56° C 23% 1018.3 hPa 0 mm - 112 W/m² -
1787605502 36.67° C 23% 1018.1 hPa 0 mm - 435 W/m² -
1787605198 36.67° C 22% 1018.2 hPa 0 mm - 565 W/m² -
1787604892 36.11° C 22% 1018.4 hPa 0 mm - 590 W/m² -
1787604587 36.67° C 23% 1018.2 hPa 0 mm - 649 W/m² -
1787604287 36.11° C 23% 1018.4 hPa 0 mm - 612 W/m² -
1787603982 36.67° C 24% 1018.4 hPa 0 mm - 608 W/m² -
1787603681 36.11° C 25% 1018.6 hPa 0 mm - 612 W/m² -
1787603377 35.56° C 25% 1018.3 hPa 0 mm - 615 W/m² -
1787603073 36.11° C 26% 1018.3 hPa 0 mm - 624 W/m² -
1787602770 35.56° C 24% 1018.3 hPa 0 mm - 630 W/m² -
1787602468 35.56° C 24% 1018.4 hPa 0 mm - 635 W/m² -
1787602163 35.56° C 23% 1018.4 hPa 0 mm - 641 W/m² -
1787601862 36.11° C 24% 1018.4 hPa 0 mm - 647 W/m² -
1787601558 35.56° C 24% 1019 hPa 0 mm - 655 W/m² -
1787601253 35.56° C 27% 1018.5 hPa 0 mm - 653 W/m² -
1787600952 35.56° C 25% 1018.7 hPa 0 mm - 664 W/m² -
1787600647 35.56° C 23% 1018.7 hPa 0 mm - 669 W/m² -
1787600342 35.56° C 26% 1018.5 hPa 0 mm - 673 W/m² -
1787600038 35° C 26% 1018.6 hPa 0 mm - 678 W/m² -
1787599735 35.56° C 24% 1018.6 hPa 0 mm - 681 W/m² -
1787599430 35° C 24% 1018.6 hPa 0 mm - 684 W/m² -

* Rain latest hour (hover to see other rain measurements)
** Current wind speed in m/s (hover to see current wind gust speed)